Theta_e
326 321 316 318 319 326 323 318 306 310 309 302 302 304 302 308 307 304 302 302 301 301 303 304 303 302 301 298 296 295 295 295 290 296 298 296 299 302 299 300 299 300 302 304 303 304 306 324 329 330 330 330 330 331 330 329 331 331 331 333 333 332 331 331 332 333 333 333 334 335 336 335 335 335 335 335 335 335 335 335 335 336 336 336 336 337 337 339 338 338 340 340 341 340 340 340 339
323 315 317 319 323 322 315 317 309 305 306 301 300 304 302 306 304 301 300 301 301 301 303 303 303 303 302 301 300 299 294 294 294 295 299 298 298 300 299 299 299 299 301 303 303 305 305 323 328 328 329 330 330 329 328 327 327 327 328 328 329 329 329 328 328 328 329 330 331 332 332 334 334 335 334 332 334 333 333 333 332 332 332 332 333 334 334 335 335 337 335 335 336 337 337 336 336
315 316 318 320 323 321 318 315 303 303 301 299 300 301 305 304 301 302 301 302 302 302 302 301 300 298 300 302 298 298 292 295 295 297 297 297 294 296 298 300 300 301 301 304 303 304 306 321 325 327 328 329 329 329 328 328 328 327 326 326 326 325 325 326 325 325 325 325 325 325 329 330 332 332 332 332 332 331 330 330 330 329 329 330 330 330 330 331 331 332 333 333 332 333 333 333 333
315 318 319 321 315 320 311 309 307 303 300 301 300 302 304 302 301 302 303 302 302 303 302 301 298 297 298 294 296 300 293 293 295 295 294 293 293 296 299 300 302 301 301 301 300 301 305 319 322 324 326 327 327 327 326 326 327 326 326 326 325 325 325 324 324 323 323 321 323 323 324 325 328 329 329 329 329 329 328 327 327 327 327 327 327 327 327 328 328 328 328 328 329 329 329 329 328
315 320 321 318 315 310 310 305 304 305 300 303 300 303 302 302 301 301 301 302 302 303 303 301 299 297 297 294 295 294 292 295 297 296 294 296 299 299 299 300 301 299 299 301 299 301 306 317 320 322 324 324 326 326 325 325 326 325 324 324 324 324 324 324 323 323 322 321 321 321 322 323 323 326 327 327 326 326 326 326 326 326 326 325 325 326 326 325 326 325 325 325 325 325 325 324 324
316 319 320 319 310 312 310 303 302 299 297 300 302 303 302 303 301 301 300 301 302 303 304 303 302 298 294 293 296 293 296 293 297 296 295 296 300 301 300 302 300 299 298 299 298 300 305 314 317 319 321 323 324 324 324 324 324 324 323 323 323 322 322 322 322 322 323 322 322 322 322 321 321 322 324 325 325 325 325 324 324 324 324 324 324 324 324 323 323 323 323 323 323 323 323 322 321
316 317 315 314 311 312 305 302 299 299 297 299 303 302 305 302 302 301 301 300 301 301 302 299 300 298 296 295 296 295 297 298 296 297 298 299 301 301 301 300 300 298 298 298 298 300 305 311 314 317 318 321 321 321 321 321 321 321 321 320 321 320 319 319 319 320 321 321 320 321 320 320 320 320 321 323 324 324 323 323 323 323 323 323 323 322 322 322 321 321 321 321 321 321 320 320 319
316 314 312 308 304 307 301 299 297 300 297 298 299 299 300 301 302 301 301 301 297 297 298 298 300 297 293 298 293 294 297 297 298 299 299 300 301 300 300 298 298 297 298 299 299 300 304 309 311 313 316 317 318 318 318 318 318 318 318 318 318 318 318 317 317 317 318 318 317 317 318 318 318 318 318 320 321 322 321 321 321 321 321 321 321 321 321 320 319 319 319 319 319 319 318 318 317
315 313 311 310 302 303 299 297 295 297 295 297 298 298 300 300 301 301 299 299 298 298 297 297 299 297 293 293 291 294 294 296 297 298 300 299 298 299 298 298 297 297 297 298 299 300 301 306 309 310 313 314 315 316 316 316 316 316 316 316 316 316 316 316 316 316 316 316 316 316 315 315 316 315 315 317 318 319 319 319 319 320 320 319 319 319 319 319 318 317 317 317 317 317 317 316 315
311 312 305 306 306 298 298 297 297 294 293 295 296 296 298 300 299 300 299 298 296 297 295 297 301 295 295 290 290 292 292 295 296 298 298 297 298 299 297 298 299 298 297 298 298 298 300 303 306 307 309 311 312 313 314 314 314 314 314 314 314 314 314 314 314 314 314 314 314 314 314 314 314 314 314 314 315 316 317 317 317 318 318 317 317 317 317 317 316 316 315 315 315 315 315 315 315
306 309 311 304 301 299 298 294 294 295 294 295 297 297 298 299 299 297 297 296 297 296 296 296 295 293 294 290 292 295 296 296 296 295 296 296 298 297 297 298 298 298 297 298 298 299 299 299 303 305 306 308 310 310 311 312 312 312 312 311 312 312 312 312 312 312 312 312 312 312 312 312 312 312 311 311 312 313 314 315 314 315 315 315 315 315 315 314 314 314 313 313 313 313 313 313 313
304 306 308 301 299 299 297 295 293 294 294 296 295 296 295 296 297 296 296 296 296 296 293 295 294 296 292 290 290 293 294 295 297 296 296 297 296 297 298 297 297 297 297 297 297 297 297 298 299 301 303 304 306 308 308 309 310 310 310 310 310 310 310 310 310 310 310 310 309 309 310 310 309 309 309 309 309 310 311 312 312 313 313 313 313 313 313 312 312 312 311 311 310 311 311 311 311
306 308 304 300 297 298 297 296 295 296 296 295 295 294 295 296 295 296 296 297 297 298 294 294 294 297 293 290 292 293 292 294 295 296 296 296 297 297 297 295 296 296 297 297 296 296 297 297 297 298 300 301 302 304 306 306 307 307 307 308 308 308 308 307 308 308 308 307 307 306 307 308 307 307 307 307 307 307 308 309 310 310 311 311 311 311 311 311 311 311 310 309 308 308 308 308 309
306 306 305 295 299 299 298 297 298 297 295 295 295 294 294 294 294 295 297 297 292 291 293 295 296 296 291 292 291 290 291 295 295 296 296 296 296 296 297 295 296 296 296 296 295 296 296 297 297 298 298 298 298 299 302 304 304 305 306 306 306 306 306 305 305 306 305 305 305 304 304 305 305 304 304 305 305 305 305 305 307 309 309 309 309 309 309 310 310 309 309 308 307 306 306 306 306
304 305 303 299 297 298 297 297 298 299 294 295 293 294 295 294 294 296 293 295 292 293 296 297 295 295 292 290 289 290 292 294 295 297 296 296 295 295 296 295 295 296 296 295 296 296 296 297 297 297 298 298 298 298 299 300 303 303 304 304 305 304 304 304 304 303 303 303 303 303 302 302 302 303 303 303 303 304 304 303 304 306 307 307 307 307 307 308 308 307 307 306 306 305 304 304 304
306 307 305 299 296 297 295 298 298 299 293 294 294 296 295 293 294 293 292 293 291 293 296 292 296 293 293 292 291 292 293 295 296 296 296 297 296 296 295 295 294 295 295 295 295 296 296 297 297 297 298 298 299 298 299 299 301 302 302 302 302 303 302 302 301 301 301 301 301 301 301 298 299 298 302 299 301 301 302 301 302 303 304 305 305 305 306 306 306 306 305 305 304 303 302 302 302
304 309 300 298 294 297 293 297 296 294 293 294 294 294 294 291 292 293 295 296 291 290 291 292 292 294 290 291 293 294 295 297 297 295 295 295 294 292 294 294 294 294 296 295 295 295 296 297 297 298 298 298 299 299 299 300 300 300 299 301 301 301 301 300 300 299 299 299 299 298 298 296 296 297 296 297 299 298 300 300 300 301 302 303 303 303 303 303 304 304 304 303 302 301 300 299 300
306 300 297 292 293 291 290 292 294 296 295 293 293 295 294 291 292 292 294 292 291 290 289 290 291 291 292 293 294 295 295 295 295 293 292 292 292 291 291 292 293 293 294 295 295 296 297 297 298 298 298 298 299 300 300 300 300 300 300 299 299 300 300 300 300 300 300 300 300 298 297 297 296 296 296 298 296 297 297 299 300 300 301 301 301 301 301 302 302 302 302 302 301 300 299 298 298
299 297 295 290 291 290 291 292 294 296 293 293 293 293 294 290 292 293 291 291 292 290 289 290 288 290 292 292 294 294 294 293 292 291 291 290 291 290 291 292 292 293 294 295 295 296 297 297 298 298 299 299 299 299 300 300 299 300 300 301 301 300 301 301 301 300 300 301 301 299 298 298 298 297 297 298 299 298 298 298 298 298 299 299 300 299 299 300 300 300 301 300 299 299 298 298 297
296 298 291 289 291 290 291 293 292 295 295 293 292 291 291 290 291 293 292 291 292 290 290 289 288 288 290 291 292 293 293 292 293 292 292 292 292 292 292 292 292 293 293 294 295 297 297 296 297 297 299 299 299 299 300 300 300 300 300 300 300 300 300 300 300 300 300 300 300 299 298 299 299 298 299 298 298 298 299 298 298 298 298 298 299 298 298 298 298 298 298 299 298 298 298 297 297
295 295 292 292 292 293 290 292 291 293 294 293 293 293 291 290 291 292 293 294 290 290 290 289 288 289 290 291 292 292 291 291 291 293 292 292 293 293 293 293 292 293 295 295 296 296 297 297 298 298 300 300 300 299 299 299 300 298 299 299 299 299 300 299 299 299 300 300 299 298 299 299 299 299 299 298 298 298 298 298 298 298 298 299 298 298 298 299 299 298 298 297 297 297 297 297 297
292 288 291 292 292 290 290 290 290 291 293 294 293 292 289 291 291 290 294 292 288 288 290 291 291 292 291 291 290 290 290 291 291 291 291 292 292 292 293 294 294 295 296 294 295 295 297 297 298 298 299 299 299 298 298 299 299 298 299 298 298 299 300 299 299 299 299 299 299 299 298 298 298 298 298 298 298 298 297 297 298 298 298 298 298 298 297 298 298 298 298 297 297 297 297 297 297
289 289 290 291 292 290 289 290 288 290 292 291 290 290 292 290 288 289 288 287 288 290 291 292 291 291 291 291 290 290 290 290 290 291 292 292 292 293 293 294 293 293 295 295 296 295 296 297 297 298 298 298 299 299 299 299 298 299 299 299 299 298 299 299 298 298 298 299 299 298 297 297 297 297 297 297 297 298 297 297 297 297 297 297 297 297 297 297 297 297 297 297 297 297 297 297 297
293 287 289 289 291 288 289 289 289 291 291 288 291 291 290 291 287 289 287 288 289 290 291 291 291 291 290 289 290 290 290 290 290 291 292 292 292 293 294 293 293 295 295 295 295 296 296 296 296 297 297 297 299 299 299 298 299 300 299 299 299 298 299 298 298 298 300 298 298 298 298 297 296 296 297 297 297 298 297 298 298 297 297 297 297 297 297 296 296 296 297 297 296 297 296 297 297
290 287 289 288 289 288 289 290 290 290 289 291 291 290 288 290 288 289 286 288 289 289 291 290 289 289 289 289 288 289 289 290 290 292 293 293 293 293 294 294 294 294 294 294 295 296 296 296 296 296 296 296 298 298 298 298 299 299 299 298 298 299 298 298 298 299 298 298 298 298 298 297 296 297 297 297 297 297 297 297 297 296 297 297 297 296 297 296 296 296 296 296 296 296 296 296 296
290 289 290 289 289 290 290 290 289 289 289 290 290 288 288 289 291 287 287 287 288 289 289 289 289 289 289 289 289 288 288 289 290 291 291 293 293 292 293 293 294 293 293 294 295 296 296 296 296 296 296 297 298 299 298 298 298 298 299 299 298 298 297 299 299 297 298 298 297 298 298 297 296 296 296 296 296 296 297 297 297 296 296 296 296 296 296 296 295 295 295 296 295 295 295 295 295
291 290 290 289 289 290 290 289 288 289 289 290 288 287 287 288 287 285 288 288 289 289 289 289 289 289 289 289 290 290 289 289 290 291 292 293 293 293 293 294 294 294 295 295 295 296 297 296 296 296 297 298 298 297 298 298 299 298 299 299 299 298 298 299 298 298 297 297 297 298 298 298 297 297 297 297 296 296 296 296 296 296 296 296 296 296 296 296 295 295 295 295 295 295 295 295 295
291 291 291 290 291 290 290 290 289 290 289 288 290 287 289 289 289 285 287 288 289 288 289 288 288 289 289 289 289 290 290 291 291 291 290 291 292 292 292 293 293 294 294 294 295 296 296 295 295 296 296 297 298 297 298 298 298 298 299 299 298 299 300 298 297 297 297 297 298 298 298 297 297 297 297 297 297 296 296 296 296 296 296 296 296 296 295 296 296 296 296 296 296 295 295 295 295
290 290 288 289 291 289 289 288 289 290 288 288 287 289 287 285 283 286 287 288 288 288 288 288 288 288 289 289 289 290 291 291 291 291 291 292 292 292 292 294 294 293 295 295 296 297 295 295 295 296 296 297 297 297 297 298 298 298 298 299 298 300 298 298 297 297 297 298 298 298 298 298 297 297 296 297 297 296 296 296 296 296 296 296 296 296 296 296 295 295 295 296 295 295 294 294 295
291 291 290 289 289 287 288 290 290 289 288 288 287 284 284 284 285 286 287 287 288 288 287 288 288 288 289 289 290 290 291 292 291 292 292 292 292 292 292 293 294 294 295 295 296 295 295 296 295 295 297 297 298 297 298 297 297 298 298 298 298 298 297 297 297 297 297 297 297 298 298 298 297 297 297 297 296 296 296 296 296 296 296 296 296 296 295 295 294 294 294 294 294 293 293 294 293
289 287 290 287 288 284 287 287 288 288 287 289 288 284 284 285 286 286 287 287 287 287 288 288 288 289 289 290 290 290 291 292 291 291 292 292 292 293 293 294 294 294 294 295 294 295 295 295 295 295 296 297 298 297 297 298 298 298 297 298 298 298 298 297 297 297 297 297 297 297 298 297 297 297 297 297 296 296 295 295 295 295 296 296 295 295 295 295 295 294 294 293 293 293 293 293 292
288 287 286 287 287 284 286 288 287 284 288 290 288 285 284 284 285 286 286 287 287 287 287 288 288 289 289 290 290 291 291 292 292 292 292 291 292 292 293 293 294 294 294 294 295 295 295 295 297 296 297 297 297 297 298 298 297 298 298 298 297 299 297 297 297 297 297 297 297 297 297 297 297 297 297 297 295 295 295 294 295 295 296 295 295 295 295 294 294 294 294 293 292 292 292 292 292
289 289 284 284 285 284 285 286 288 287 285 290 288 285 284 284 285 286 286 286 287 287 287 288 288 289 290 290 290 290 291 292 293 292 292 292 293 292 292 292 294 294 293 293 294 294 295 295 296 297 296 297 296 296 298 298 298 297 297 297 297 298 297 297 297 297 298 297 297 296 297 297 297 297 296 296 295 295 294 295 295 295 295 295 294 294 294 294 293 293 293 293 293 291 291 291 291
286 287 284 282 282 284 284 286 288 288 288 285 288 285 282 283 285 286 286 286 287 287 288 288 289 290 290 291 291 291 291 291 291 292 292 292 292 292 293 293 293 293 294 294 294 294 294 296 297 297 297 296 296 296 297 297 297 298 297 298 298 297 298 297 297 297 297 296 296 296 297 297 296 296 296 296 295 295 295 295 295 295 295 294 294 294 293 294 294 293 292 292 292 291 290 290 290
284 285 284 283 283 283 282 283 284 286 287 285 285 284 282 284 285 286 286 286 287 287 287 288 289 289 290 290 291 291 291 291 290 291 292 292 292 293 293 293 294 295 294 294 294 295 296 296 296 297 296 296 296 296 297 298 297 297 297 297 297 297 297 297 297 296 297 296 296 297 296 296 296 296 295 295 295 294 294 294 294 294 294 293 293 293 293 293 292 292 291 290 292 291 290 290 290
283 283 284 284 283 282 282 283 285 285 284 284 284 283 283 284 285 286 287 287 288 288 289 289 289 289 289 290 290 291 291 291 292 293 293 293 293 293 293 293 294 295 294 294 295 296 296 295 296 297 296 295 296 296 297 296 296 295 295 295 295 295 296 296 296 296 296 295 296 295 295 295 295 294 294 294 293 293 292 292 292 293 293 293 292 291 291 291 290 290 290 290 290 290 291 291 291
284 284 284 283 283 282 283 284 285 284 284 282 283 283 283 284 284 285 286 288 288 288 287 288 288 288 289 289 289 290 290 290 293 294 294 294 294 293 294 295 295 295 295 295 295 295 295 294 295 295 296 296 295 295 295 295 294 294 294 294 293 294 294 295 295 295 295 295 295 295 294 294 294 293 293 293 292 292 291 291 292 292 292 291 290 290 290 290 290 290 290 290 289 288 289 291 291
284 284 284 283 284 282 282 283 285 285 284 282 283 284 283 284 285 285 287 287 286 287 287 287 287 288 289 289 289 290 290 293 293 292 292 293 294 294 295 295 295 293 294 294 294 294 295 295 295 295 295 295 295 294 295 295 295 294 293 293 293 293 293 293 293 294 294 295 295 294 294 294 293 293 292 292 292 291 291 291 291 290 290 290 290 290 289 290 289 289 290 288 290 288 287 289 290
283 284 284 284 282 283 283 284 285 285 285 282 283 283 283 283 284 285 286 286 287 287 287 286 287 288 288 289 289 289 290 290 291 291 292 292 293 294 294 294 294 294 294 294 295 294 294 294 295 295 295 295 295 295 295 294 294 295 294 294 293 293 295 295 294 295 295 294 293 293 293 292 292 291 291 291 290 290 290 289 288 288 288 288 287 288 288 288 288 288 288 287 286 288 287 289 289
285 285 284 283 282 282 282 283 284 285 284 283 283 283 282 283 284 285 285 286 286 286 286 287 288 287 287 288 288 288 289 290 290 290 291 292 292 293 293 293 294 294 294 294 294 293 293 294 294 294 294 295 295 295 295 295 295 295 296 295 295 295 294 295 295 294 293 292 291 292 292 291 291 290 290 289 289 289 288 287 286 286 287 287 287 286 287 286 287 287 286 286 286 284 285 285 287
284 284 284 283 282 282 282 283 283 284 285 285 283 283 282 283 283 283 285 286 285 286 287 287 288 289 289 290 291 290 288 289 289 290 291 291 291 291 292 293 294 294 294 294 293 292 292 293 294 294 294 294 294 294 294 294 295 294 294 294 294 293 294 293 291 290 290 290 290 290 289 290 290 289 289 288 288 287 286 286 286 286 286 287 286 285 285 285 285 285 285 285 285 283 282 283 284
283 281 282 281 281 282 282 282 283 283 282 283 282 280 281 282 282 283 284 285 285 285 286 286 287 288 288 288 288 290 291 291 290 289 290 291 291 292 293 293 293 293 293 293 293 292 292 293 293 294 294 294 294 294 293 294 293 292 292 290 289 289 288 288 287 287 287 287 287 288 289 288 288 287 287 287 286 285 285 285 286 285 285 285 285 284 284 284 285 284 285 284 283 283 282 282 282
284 281 282 282 281 281 281 282 282 282 280 281 283 279 278 282 281 282 283 283 283 285 285 286 286 287 288 288 288 289 289 289 291 291 291 291 291 291 292 292 293 292 293 293 292 292 293 293 293 293 294 294 294 293 294 293 292 292 291 290 289 288 287 288 288 288 287 287 288 287 287 287 287 286 285 285 285 285 285 285 285 284 284 284 284 284 283 283 284 284 284 283 283 283 283 280 281
283 281 282 282 281 281 282 283 283 282 282 282 281 282 279 280 282 283 282 282 283 284 285 286 286 287 287 288 288 289 289 290 290 290 291 291 291 291 291 292 292 292 292 292 292 292 292 292 292 293 294 293 293 293 293 293 291 291 290 289 289 288 287 286 286 286 287 287 286 285 285 285 285 285 284 284 284 284 284 284 284 283 283 284 284 283 283 283 283 283 283 283 283 282 282 281 280
282 282 282 282 282 282 282 283 283 282 281 282 282 282 279 280 281 281 282 280 282 283 284 285 286 287 287 288 289 289 289 290 289 289 290 290 291 291 291 291 291 291 292 291 291 292 292 292 293 293 293 293 293 293 292 292 291 290 289 289 287 287 287 286 286 286 285 285 284 284 283 283 283 283 283 283 283 283 283 283 283 283 283 282 283 283 283 282 282 281 281 281 281 282 282 282 281
282 283 284 283 283 283 283 284 283 281 280 279 279 280 278 280 281 281 281 281 281 284 285 285 286 287 288 288 289 289 290 290 291 291 291 291 291 291 292 291 291 292 292 292 292 292 292 292 292 292 292 292 292 292 291 291 290 289 288 287 286 285 285 285 285 284 283 283 282 282 282 282 282 282 283 283 283 283 282 282 282 282 282 282 282 282 281 281 281 281 281 281 281 281 281 281 281
284 284 284 283 283 283 282 283 283 282 278 279 278 279 278 276 281 283 281 282 284 285 285 286 286 287 288 288 289 289 289 290 290 290 291 292 292 292 292 291 292 292 293 292 292 292 292 292 292 291 292 292 291 291 290 290 290 289 288 287 285 284 284 283 282 282 282 281 280 281 281 281 281 281 282 282 282 282 282 282 282 282 282 282 281 280 280 280 280 280 281 281 280 280 280 280 280
284 284 283 282 281 282 282 281 282 277 277 278 278 277 278 275 280 283 285 284 284 285 284 285 286 286 287 288 289 289 289 289 290 290 290 291 291 292 292 291 291 291 292 292 292 292 292 292 291 290 291 291 291 291 290 289 289 288 287 286 284 283 283 282 281 281 280 280 280 279 280 280 280 281 281 281 281 281 281 281 281 281 281 280 280 280 280 280 280 280 279 279 279 279 280 279 279
284 282 283 280 280 280 278 280 277 277 276 278 277 278 277 278 282 284 284 285 285 285 286 286 286 287 288 288 289 290 290 290 289 290 289 290 290 290 290 290 291 291 291 291 291 291 291 291 291 290 290 291 290 290 289 288 288 287 286 284 284 283 282 281 281 280 280 279 279 279 279 278 279 279 280 279 280 280 280 280 280 279 279 279 279 279 279 279 279 279 279 279 279 279 278 279 278
283 282 281 280 277 275 273 276 275 277 279 277 277 277 276 282 283 285 284 285 286 286 286 287 286 286 287 288 289 289 290 290 289 289 289 289 290 290 290 290 290 290 290 291 291 290 290 290 290 290 290 290 290 289 288 287 286 286 285 284 282 282 281 281 280 280 279 279 279 278 278 278 278 278 279 279 280 280 279 279 279 279 279 279 279 278 278 278 278 278 278 278 278 278 278 278 278
282 281 281 281 279 275 271 274 274 275 276 278 275 275 277 277 281 283 284 284 284 284 284 285 285 286 286 287 287 287 288 289 290 289 289 289 290 290 290 290 290 290 290 290 290 290 290 290 290 289 289 289 288 288 287 286 285 284 283 283 282 281 280 280 280 280 279 279 279 278 278 278 278 278 278 279 279 279 279 279 278 278 278 278 278 278 278 277 277 277 277 277 277 278 277 277 277
282 282 283 282 278 281 277 274 275 273 274 276 276 277 280 281 283 284 284 285 285 285 285 285 285 286 286 286 287 289 289 289 289 289 289 290 290 290 290 290 290 290 290 290 290 290 290 289 289 289 289 288 288 287 286 285 284 283 282 281 281 280 280 280 279 279 279 279 278 278 278 278 278 278 279 279 278 278 278 277 277 277 277 277 277 277 276 276 276 276 276 276 276 277 276 276 276
282 283 280 279 281 279 274 270 268 268 272 275 278 279 282 284 282 284 283 284 285 285 285 285 286 287 286 286 288 289 289 289 289 289 289 289 289 289 290 290 289 289 289 289 289 289 289 288 288 288 288 287 286 285 284 283 282 282 281 280 280 279 279 278 278 278 278 278 278 278 278 278 278 278 278 278 277 277 277 277 276 276 276 276 276 276 276 276 275 275 275 275 275 276 276 275 276
283 281 280 279 278 277 277 275 272 274 272 275 274 276 279 279 277 283 283 283 284 285 285 285 286 286 286 288 289 289 289 289 289 290 290 290 290 290 290 290 290 289 289 289 289 289 289 288 288 287 286 285 285 284 283 282 281 280 280 279 279 279 278 278 278 278 278 278 278 278 278 277 277 277 277 277 277 276 276 276 275 275 276 275 275 275 275 275 275 275 275 275 275 275 275 275 275
283 281 283 279 277 277 278 275 271 272 271 273 275 274 276 279 280 282 282 283 284 285 285 285 286 287 287 288 288 289 289 289 289 289 289 289 290 290 290 289 290 289 289 289 289 289 289 288 288 287 285 285 284 283 282 281 281 280 279 279 279 278 278 278 278 278 278 277 277 277 276 276 276 276 276 276 275 275 275 275 275 275 275 275 275 275 275 275 274 274 274 274 275 275 274 274 274
282 284 282 281 281 278 277 276 276 276 273 272 274 273 277 280 282 283 283 284 285 285 285 285 286 287 287 287 287 288 288 288 288 288 289 289 289 289 289 289 289 288 288 289 289 289 288 288 287 286 285 284 283 281 280 280 280 279 279 279 278 278 278 277 277 277 277 276 276 276 276 275 275 276 275 275 275 274 274 274 274 274 274 274 274 274 274 274 274 274 274 274 274 274 273 273 274
282 282 281 280 279 279 278 275 275 275 272 272 271 272 280 283 284 284 285 285 285 285 285 286 286 287 287 287 288 288 288 288 288 289 289 289 289 289 289 289 289 289 289 289 289 288 287 287 286 285 283 282 281 280 279 279 279 278 278 277 277 277 277 277 277 277 276 276 275 275 275 275 275 274 275 274 274 274 274 274 273 274 274 273 273 273 274 274 273 273 273 273 273 273 273 273 274
279 280 280 280 279 278 275 274 272 270 274 270 270 273 280 284 283 284 285 284 283 284 284 284 286 286 287 287 288 288 287 288 288 288 288 288 288 289 289 289 289 288 288 288 288 287 287 286 284 283 282 281 279 279 278 278 278 278 277 277 277 277 277 277 276 276 275 275 275 274 274 274 274 274 274 273 273 273 273 273 273 273 273 273 273 273 273 273 273 272 272 273 273 273 273 273 273
Wind_Speed
4 3 3 1 2 2 3 1 4 3 3 5 5 0 4 3 3 4 5 4 2 4 5 6 10 10 7 9 14 12 11 8 5 4 3 2 7 5 11 12 12 14 13 13 15 15 17 21 27 28 28 28 30 30 30 31 31 31 31 31 31 31 30 29 29 28 28 29 30 28 27 26 25 25 26 26 26 26 27 28 27 26 26 26 26 25 26 26 25 26 26 26 25 26 25 25 24
3 3 2 3 2 3 2 3 0 4 4 6 6 1 5 4 3 6 6 7 5 4 4 6 7 9 11 10 8 7 13 12 7 3 2 4 6 4 11 12 13 14 14 13 14 13 14 15 26 26 28 27 27 28 27 27 28 28 29 29 30 31 30 29 29 29 28 27 27 27 28 26 25 25 26 27 27 27 28 28 27 26 26 25 25 25 26 24 25 26 25 25 25 24 22 22 22
3 2 3 4 4 2 3 2 3 2 3 3 5 4 1 5 6 5 6 6 5 5 3 3 6 6 5 2 8 7 4 6 8 5 2 7 4 6 13 14 12 12 13 11 12 14 12 17 26 26 27 28 29 27 26 27 27 26 26 25 26 26 26 26 26 25 24 27 27 27 27 27 27 28 28 27 27 27 27 26 25 25 24 24 23 23 23 24 25 25 24 24 23 23 22 22 21
3 2 3 4 4 3 2 1 1 1 2 6 7 4 4 4 5 5 4 2 3 1 2 2 0 6 2 8 7 10 9 4 7 4 2 6 5 8 10 12 12 9 11 10 12 13 12 21 25 24 23 24 25 25 28 28 28 28 26 26 25 25 24 23 23 23 23 24 24 25 26 26 29 28 28 27 27 26 25 24 24 24 24 23 23 23 23 24 23 23 23 23 23 23 22 22 21
1 1 3 4 4 4 2 3 2 2 4 1 5 5 4 4 5 4 4 3 2 1 3 3 4 5 9 9 5 2 5 1 6 7 2 2 8 8 9 11 10 8 9 10 12 12 12 25 24 24 24 24 24 24 25 25 26 26 27 26 26 24 24 23 23 23 23 23 23 24 24 25 26 26 26 25 26 26 26 26 25 24 22 22 23 23 23 23 23 23 23 22 22 21 21 21 21
2 3 4 2 2 2 3 5 4 7 6 4 8 6 4 5 6 6 7 6 7 6 3 3 2 4 5 7 5 4 7 2 3 4 5 5 9 9 10 10 9 9 9 9 10 10 11 22 23 23 24 25 26 26 26 27 26 26 25 26 25 24 24 25 24 25 24 25 25 25 24 24 24 24 25 25 25 26 26 25 24 23 23 23 23 24 23 23 22 22 22 22 22 22 22 22 21
1 6 4 7 6 2 3 6 7 7 6 6 7 7 5 5 6 4 4 5 6 9 7 6 9 8 8 4 7 6 4 4 0 1 2 3 5 7 7 7 7 8 10 8 8 9 11 20 21 21 22 24 25 26 25 25 26 25 25 25 24 25 25 25 24 24 25 24 24 24 25 25 24 24 24 25 26 25 24 24 24 25 24 24 24 23 23 22 22 22 22 22 21 21 21 21 21
1 2 2 4 5 3 7 7 8 3 5 8 6 6 5 3 2 4 3 4 5 3 6 4 1 8 8 1 2 3 1 2 3 3 2 4 5 7 7 8 8 10 11 10 10 10 12 19 20 21 23 24 24 24 24 25 24 24 24 25 25 25 25 25 24 24 24 24 24 23 23 24 25 25 24 24 24 24 24 24 23 23 23 24 24 23 22 22 22 22 22 22 21 20 20 20 21
4 3 2 4 7 4 7 7 8 8 7 6 7 7 5 4 3 3 6 6 4 6 5 3 2 4 5 10 6 2 2 1 1 1 2 3 5 7 5 8 8 8 11 10 10 10 10 17 21 22 23 24 24 24 24 24 24 24 25 25 25 25 25 24 24 24 24 24 24 24 25 24 24 24 24 24 24 24 24 23 23 22 22 22 22 22 22 22 22 22 22 21 21 20 20 20 20
4 3 5 4 6 9 8 6 5 5 6 6 7 6 5 4 4 3 5 6 6 6 7 5 2 10 9 9 7 2 2 1 0 0 2 3 5 6 7 8 9 10 10 10 9 9 10 15 21 22 22 23 24 24 24 24 24 24 24 25 25 24 23 24 24 24 24 24 24 24 24 24 24 24 24 23 23 23 23 23 23 23 23 23 22 22 21 22 22 22 22 21 20 20 21 21 20
5 4 2 5 6 8 6 7 8 6 5 2 5 4 4 2 3 4 3 5 1 3 4 5 8 8 6 6 6 4 2 1 0 3 3 4 5 6 6 6 7 9 9 10 9 9 10 12 17 21 21 22 24 24 24 24 24 24 24 24 24 24 23 23 23 23 24 24 24 23 23 23 23 23 24 23 23 23 23 23 23 23 23 22 22 22 22 22 22 22 22 21 21 20 21 21 21
5 2 1 7 6 5 7 9 8 7 5 3 4 4 5 4 2 4 4 4 4 6 7 9 4 3 7 5 3 3 1 2 3 3 4 5 4 6 5 6 8 9 9 9 9 10 10 9 10 14 20 21 22 23 23 23 23 23 23 23 23 22 23 23 23 23 22 23 23 23 22 22 22 22 21 21 22 22 23 23 22 22 22 22 22 21 21 21 21 21 21 21 21 21 21 21 20
7 2 8 7 4 7 10 10 8 9 6 5 4 5 5 4 7 6 5 6 4 2 8 12 6 6 3 5 4 2 2 4 4 4 5 5 6 6 7 8 8 9 9 9 11 11 11 11 10 11 13 16 16 18 20 21 21 21 21 21 21 21 21 21 20 20 20 21 20 20 20 20 20 20 20 20 21 21 21 21 21 21 21 21 21 20 20 20 20 20 20 20 20 20 20 20 20
3 3 5 7 2 8 7 8 10 8 6 5 6 5 7 6 7 7 6 5 10 8 6 9 5 7 9 4 3 3 4 3 4 5 4 5 5 5 7 7 8 9 9 10 11 10 10 9 9 9 9 10 10 12 14 18 18 19 19 20 20 20 20 19 19 19 19 18 18 18 18 17 17 17 18 19 20 20 20 20 20 20 20 19 19 19 19 19 19 20 19 19 19 18 18 18 19
5 1 6 7 7 7 4 4 7 7 7 5 4 4 5 8 6 7 10 6 9 5 4 4 7 7 4 1 4 3 4 5 5 4 4 3 4 5 5 6 8 9 10 11 10 10 11 10 9 8 9 9 9 7 7 9 16 16 17 17 18 18 18 18 18 18 17 17 16 16 16 15 15 16 16 17 18 18 18 18 19 18 18 18 18 18 19 19 19 19 18 17 17 16 15 15 16
3 3 5 7 7 7 4 6 1 8 6 6 6 6 10 9 8 4 7 6 5 6 6 5 9 5 5 10 8 6 6 3 2 1 2 2 2 4 5 5 7 7 6 8 8 9 8 9 8 8 9 9 8 8 8 8 10 13 13 14 15 15 16 15 15 15 14 14 14 14 14 11 11 11 15 12 15 15 16 15 16 16 16 17 17 17 17 18 17 17 16 16 16 15 14 13 14
2 1 9 7 9 7 5 3 3 6 7 5 2 2 3 6 6 8 5 5 10 9 10 9 8 7 10 8 7 6 5 1 1 2 2 3 3 3 4 4 4 5 4 6 7 6 6 7 8 7 7 7 7 6 5 6 7 10 8 9 10 10 11 10 9 9 8 8 8 9 8 8 7 7 9 9 11 10 13 14 14 15 15 15 16 15 16 16 16 16 16 15 15 13 11 10 11
3 8 9 11 7 9 6 7 6 3 6 5 6 3 5 7 4 3 2 11 11 10 11 9 10 10 7 6 6 5 3 1 1 2 4 3 3 4 4 5 5 6 6 5 7 7 6 7 7 7 5 7 6 4 3 4 4 6 7 7 8 9 10 9 8 7 7 6 7 5 6 7 5 5 6 7 6 7 9 12 13 13 14 15 15 14 14 15 14 15 15 13 13 12 11 6 7
10 8 10 10 7 4 4 4 4 3 8 7 6 4 6 6 1 1 3 7 7 11 10 8 9 7 7 6 4 4 2 2 3 4 5 6 5 6 5 5 6 6 6 6 6 8 7 7 8 8 8 8 8 8 5 7 9 8 8 7 6 5 6 6 7 7 8 8 8 8 8 7 6 6 6 5 5 6 6 7 8 8 10 11 12 9 10 12 12 13 13 12 10 11 7 6 6
12 8 12 9 7 8 7 7 7 8 7 9 9 9 11 6 3 0 7 9 9 10 7 6 6 6 5 4 4 3 3 4 4 5 6 7 6 6 6 7 7 7 7 6 6 5 7 7 7 7 8 8 8 7 6 7 7 7 7 7 7 7 9 8 9 9 8 9 9 9 8 8 8 7 8 8 6 8 7 7 8 8 10 9 12 7 7 7 8 8 9 11 8 6 7 7 6
7 9 9 7 2 6 7 6 6 5 4 8 9 8 11 10 7 2 3 8 11 9 7 5 5 4 4 4 4 2 3 4 4 5 6 7 7 5 5 6 5 5 4 4 5 5 6 6 6 6 6 6 7 7 8 9 9 9 9 9 9 9 9 8 8 8 8 9 9 9 8 8 8 7 8 8 8 7 7 8 7 7 7 7 9 7 7 7 6 6 5 6 6 6 6 6 6
9 11 7 6 4 11 4 4 5 5 4 9 6 7 6 3 11 12 5 9 6 5 6 6 5 4 4 3 3 3 3 4 4 5 6 5 5 4 3 3 2 2 2 4 5 5 6 6 6 7 8 9 10 9 9 9 9 9 9 9 8 8 8 8 8 7 7 7 7 7 8 8 8 7 8 8 8 7 7 7 7 7 7 7 7 6 7 7 7 6 6 6 6 5 5 5 5
13 7 8 8 7 9 3 4 4 0 5 7 9 7 8 10 10 10 14 12 6 4 3 4 4 4 3 3 2 2 3 4 4 4 3 4 3 4 4 3 4 4 4 5 5 5 6 8 8 8 8 9 9 9 7 7 8 7 7 7 7 8 7 8 8 7 7 7 6 6 7 7 7 7 8 8 8 7 7 7 7 7 7 7 7 6 7 7 7 7 7 7 6 6 6 5 5
18 9 8 11 10 11 6 9 5 9 11 9 8 6 7 6 13 6 13 7 5 4 3 4 3 3 2 3 2 3 3 3 3 3 2 3 3 3 3 4 4 3 3 5 5 5 6 8 9 9 8 9 8 8 8 8 7 7 7 7 7 7 7 8 7 7 6 6 6 6 6 6 6 7 7 7 7 7 7 7 6 6 6 6 6 6 7 7 7 7 7 8 8 7 7 7 6
15 12 8 7 8 6 5 6 11 11 11 7 9 13 11 10 9 8 10 7 4 4 3 3 3 3 3 3 3 2 2 1 2 2 1 2 2 3 2 2 3 3 4 5 5 5 6 7 8 9 9 10 8 8 8 7 7 7 7 7 7 7 7 7 7 6 6 6 6 6 6 6 6 6 6 7 6 7 7 7 6 6 6 6 6 7 7 7 7 7 7 7 7 7 7 7 7
10 12 9 9 9 7 4 8 7 6 4 2 13 14 10 10 10 14 7 6 4 2 4 3 1 3 3 2 2 2 2 1 2 2 3 2 2 4 3 3 4 4 4 5 5 5 6 8 8 8 8 8 7 7 7 7 6 6 6 6 5 6 7 6 7 7 6 6 6 7 6 5 6 6 6 6 6 7 6 6 6 6 6 6 6 7 7 7 7 7 7 7 7 7 7 7 7
11 15 14 14 10 9 6 7 6 7 9 4 11 10 5 3 6 6 5 5 4 1 3 3 2 3 2 2 2 2 3 2 3 3 4 2 3 3 4 3 4 5 5 6 6 6 7 7 8 8 8 7 7 7 6 6 5 5 5 5 5 5 6 6 7 6 7 6 6 6 6 5 6 5 6 6 6 6 6 6 7 6 6 6 6 6 7 7 7 7 7 7 7 7 7 7 7
12 15 13 13 14 16 10 8 6 3 5 7 8 13 10 7 6 5 4 5 4 3 3 3 3 3 2 2 2 2 3 3 3 3 5 5 4 4 6 5 6 6 6 6 6 6 7 8 9 9 8 7 7 7 6 6 5 5 5 5 5 6 5 6 6 7 7 6 6 5 6 6 5 5 5 6 6 6 6 7 7 6 7 6 7 7 7 7 7 7 7 7 7 7 7 7 7
6 3 12 6 12 12 15 10 7 4 4 5 5 8 12 11 6 5 5 4 3 3 3 3 3 3 3 3 3 3 3 3 4 4 4 4 4 4 6 6 5 6 5 6 6 7 8 7 8 9 8 7 7 7 6 5 5 5 5 5 5 5 6 6 7 7 7 6 6 5 5 6 6 6 6 7 7 7 7 7 7 7 7 7 7 8 8 7 7 7 8 8 7 7 8 8 7
3 5 4 6 6 10 13 9 11 2 3 6 2 2 5 6 5 5 5 3 3 1 3 3 3 3 4 4 4 4 4 4 5 4 4 5 5 6 7 7 6 5 6 6 7 8 7 5 4 6 6 8 7 6 6 5 5 5 5 5 5 6 6 6 7 7 7 7 7 6 6 7 7 7 6 7 7 7 8 7 8 8 7 8 8 7 7 8 8 7 8 8 8 8 8 8 8
4 0 1 2 0 4 8 8 13 1 1 6 2 1 5 5 7 5 4 3 3 3 3 4 4 5 5 5 5 6 5 4 5 6 6 6 6 5 6 7 6 5 5 6 8 9 9 8 5 5 6 7 6 6 6 5 5 5 5 5 6 6 6 6 6 6 7 7 7 7 7 7 8 8 7 7 8 8 8 8 9 8 9 9 8 8 8 8 7 8 8 8 8 8 8 9 9
3 3 5 3 3 3 3 9 13 6 2 8 4 3 5 5 7 5 3 2 1 2 4 5 6 6 6 5 6 6 6 5 4 4 3 4 3 4 5 6 6 5 6 7 8 7 9 8 6 6 6 7 7 6 6 5 6 5 5 5 5 5 6 6 6 6 7 7 7 7 7 8 8 8 8 8 8 8 8 9 9 9 10 9 9 9 8 9 8 8 8 9 9 9 9 9 9
5 4 3 3 2 3 2 6 10 9 5 5 6 3 6 4 6 4 2 2 1 2 4 6 6 6 6 6 5 5 6 6 4 3 4 5 3 4 5 6 5 5 5 6 7 7 7 7 6 7 7 7 7 7 6 6 6 6 6 6 6 6 6 6 6 6 6 7 7 7 8 8 8 8 9 8 8 9 9 9 9 10 9 9 9 8 9 8 9 8 9 8 9 10 10 11 10
6 4 4 3 3 2 2 2 10 12 6 5 8 7 5 3 3 3 1 3 2 3 5 6 6 6 7 6 6 7 7 8 9 8 7 6 5 6 5 5 5 4 4 4 4 4 5 5 5 5 5 6 5 5 5 5 5 6 6 6 7 7 7 7 7 7 7 7 7 7 9 8 9 9 9 9 8 9 9 9 9 9 9 9 8 8 8 8 9 8 10 9 9 10 10 10 11
3 2 4 4 4 6 5 3 8 10 8 9 9 12 6 4 3 3 3 4 2 5 4 5 7 7 7 6 7 8 9 10 9 8 8 6 6 5 5 4 4 4 3 3 3 3 3 4 4 4 4 5 5 5 5 5 5 5 6 6 7 7 7 7 7 7 7 8 8 9 10 10 10 10 11 11 10 10 10 10 10 10 9 9 9 9 9 9 9 10 11 11 9 9 10 10 10
3 3 4 2 3 3 4 4 4 7 8 9 8 6 5 5 4 2 3 4 4 5 5 5 5 5 6 7 8 8 8 8 7 6 6 5 4 4 3 3 2 2 2 3 4 3 4 5 4 4 4 4 4 4 4 5 5 5 6 6 7 7 7 7 8 7 8 8 9 10 10 10 10 10 11 11 10 10 10 10 11 10 9 9 9 10 10 9 11 12 12 12 12 10 9 9 9
4 4 4 5 6 5 2 2 5 2 2 8 6 5 6 5 4 3 2 1 4 5 6 5 5 5 6 7 7 7 8 7 6 4 4 4 3 3 2 2 3 2 3 4 6 6 5 5 5 6 5 4 4 5 5 5 5 6 6 6 7 8 8 8 8 8 9 9 10 10 10 9 10 11 10 11 10 10 10 10 10 10 10 9 10 10 11 12 11 11 10 9 11 11 9 8 9
2 4 3 4 2 4 2 4 5 1 3 4 2 4 5 4 3 4 2 2 5 4 4 5 6 6 5 7 7 7 6 4 6 6 7 6 5 4 3 3 4 7 6 6 6 6 5 5 6 6 5 5 4 5 4 5 4 4 5 6 6 7 8 8 8 8 9 8 9 10 9 10 10 10 10 11 11 11 10 9 10 10 10 10 10 11 11 11 11 10 9 9 8 10 9 9 9
1 1 3 3 4 3 2 2 5 3 3 4 1 2 3 3 2 2 3 3 3 2 2 3 4 5 5 5 6 7 7 7 7 7 6 6 6 6 4 4 4 3 5 5 4 6 6 5 5 6 5 5 4 4 4 5 5 4 4 6 6 7 6 7 8 9 8 8 9 10 10 10 11 10 11 11 10 10 11 11 11 11 11 10 10 10 10 10 9 10 10 9 10 9 9 8 8
3 2 2 2 2 3 3 3 5 6 4 3 2 2 3 1 2 2 2 1 1 2 3 2 2 3 4 5 5 5 6 6 8 7 7 7 7 7 7 6 6 5 5 6 6 7 5 5 5 5 5 4 4 4 4 5 5 6 6 6 7 6 8 9 9 9 9 10 11 10 9 10 11 11 11 11 10 11 11 11 11 10 10 10 10 10 10 10 10 10 10 10 10 11 9 9 8
5 5 3 2 2 2 4 3 2 1 6 3 2 3 3 3 4 4 3 1 2 0 1 3 3 3 3 4 3 2 6 6 7 8 8 8 8 8 8 7 6 6 6 5 6 6 4 6 5 5 4 4 3 4 5 5 5 6 6 8 8 9 9 10 10 9 9 10 10 10 10 11 11 11 11 11 10 11 11 10 10 10 10 9 9 9 9 10 10 10 10 9 9 10 12 10 10
2 4 4 2 2 2 1 1 3 4 4 4 2 3 4 5 4 3 2 2 3 1 2 2 0 1 1 3 4 4 3 4 5 7 8 8 8 8 8 9 8 7 7 6 5 6 5 5 5 5 4 4 3 4 4 5 6 6 7 8 9 9 10 10 10 12 11 11 11 11 11 11 11 11 11 11 11 11 11 11 10 10 10 9 9 9 9 9 9 9 8 9 11 11 11 12 11
1 4 1 1 1 2 2 2 4 1 2 3 2 4 2 5 5 6 4 3 3 3 4 3 2 2 2 3 4 4 5 5 5 6 7 8 9 9 9 9 9 8 8 7 6 6 5 5 5 5 5 4 3 4 4 5 7 6 8 8 8 9 10 9 10 10 11 10 10 11 11 10 11 11 11 11 11 11 11 10 10 10 10 9 9 9 9 9 9 8 9 10 10 10 10 11 11
3 2 1 2 3 3 3 4 2 2 2 3 1 2 5 1 3 3 2 3 5 5 5 5 4 4 4 4 4 5 6 5 5 7 8 9 9 8 9 10 8 8 8 8 7 6 6 6 6 6 5 4 3 4 5 5 6 7 8 9 8 9 10 11 12 11 10 10 11 11 10 10 11 10 11 10 10 10 10 10 10 10 10 9 9 9 9 8 8 9 10 11 10 9 9 10 11
3 3 1 0 1 1 3 4 1 2 2 1 3 5 4 2 3 2 2 6 8 9 7 6 4 4 3 4 4 5 6 5 4 6 8 9 9 10 9 9 10 9 7 7 7 6 6 6 6 6 6 5 4 5 6 7 7 7 8 8 9 8 10 10 10 10 10 10 12 11 11 10 10 10 10 10 10 10 9 9 10 10 9 9 9 9 9 10 12 11 11 10 9 9 8 9 10
4 2 3 3 2 2 1 2 3 2 2 1 4 7 4 2 4 4 3 5 7 6 6 6 5 5 4 4 5 5 5 5 4 5 7 8 8 8 7 8 8 7 6 6 6 5 5 5 6 7 7 5 5 6 7 8 8 7 8 8 10 10 10 10 10 11 11 10 11 12 10 10 10 10 9 9 9 9 9 9 10 10 10 10 9 9 11 11 10 10 10 10 10 10 9 9 10
1 3 1 2 1 1 1 2 1 1 1 2 4 4 4 3 3 2 3 0 2 2 2 4 5 6 6 6 6 6 5 5 5 6 7 8 8 8 6 7 8 8 6 5 4 4 4 5 6 8 6 5 5 6 7 8 7 7 7 9 11 12 13 12 12 12 11 11 11 11 10 10 10 10 9 8 8 9 9 10 9 9 9 9 10 11 10 10 10 9 9 11 11 11 10 10 11
4 2 2 2 3 2 2 1 0 1 0 4 3 4 2 3 2 2 2 1 1 3 2 4 5 6 6 5 6 6 6 6 6 6 7 9 10 10 9 9 9 9 9 8 6 5 5 5 6 8 7 5 5 6 7 8 7 8 8 10 11 11 12 11 12 13 12 13 12 11 10 10 10 9 9 8 9 9 9 9 10 10 10 10 10 9 9 9 9 9 9 9 9 10 10 10 9
2 2 3 3 1 1 1 1 1 1 3 3 3 5 2 5 2 3 2 3 3 4 3 3 5 6 7 7 8 6 6 6 7 7 8 8 9 9 9 9 9 9 8 8 8 6 6 6 7 7 7 6 6 7 7 9 9 9 9 10 11 10 11 12 12 12 11 11 10 11 11 10 10 9 9 9 9 10 9 10 10 9 9 9 10 9 9 10 10 9 9 10 9 10 9 10 9
4 2 3 2 2 2 2 1 2 3 3 2 1 3 3 1 2 2 2 2 2 3 4 5 5 8 8 8 7 7 6 6 6 7 7 8 8 8 8 8 8 8 9 8 7 6 6 6 7 7 8 6 7 8 8 9 10 10 10 10 10 10 11 11 10 10 11 10 10 11 10 10 10 10 10 10 10 11 10 11 10 10 10 10 10 10 10 10 10 9 9 9 10 9 9 10 10
4 3 4 3 1 2 2 1 3 3 5 1 2 2 0 6 3 1 2 3 4 3 4 5 6 7 7 7 8 8 7 6 6 7 8 8 9 9 7 7 7 7 8 7 5 6 6 7 7 7 8 8 8 9 8 10 10 11 10 10 10 10 10 10 10 9 10 11 10 11 10 10 10 10 10 10 11 11 11 10 11 11 10 10 10 10 9 9 9 9 9 9 9 8 9 9 9
1 1 5 1 3 3 2 2 2 2 4 4 2 2 1 3 3 1 1 4 5 6 6 5 8 6 4 6 7 6 5 7 8 8 8 10 10 9 7 7 7 7 8 6 6 5 6 7 7 7 7 7 8 8 9 9 10 9 10 11 11 10 10 9 9 9 10 10 11 10 11 10 10 11 10 11 11 11 11 11 10 10 10 10 9 10 10 9 9 9 9 8 9 7 9 10 10
3 2 3 2 3 0 4 3 3 2 2 2 1 5 3 4 2 1 2 4 6 5 7 7 8 7 4 7 8 6 5 7 8 8 8 9 9 9 8 7 7 7 7 7 7 6 6 7 6 7 8 8 8 9 10 10 10 10 10 10 10 11 11 11 10 11 12 11 10 10 10 11 11 10 10 10 10 10 10 10 10 10 10 9 10 9 9 9 9 9 8 9 9 9 9 10 9
4 1 3 4 1 1 1 2 1 1 1 0 1 4 5 5 2 2 2 4 5 4 5 5 6 6 6 7 7 5 6 8 9 8 8 8 7 8 8 7 7 7 7 7 8 6 5 5 5 6 7 8 8 9 10 10 10 10 10 10 10 10 10 10 10 11 10 10 10 10 10 10 10 10 10 9 10 11 10 10 10 10 9 9 10 9 9 9 9 8 9 9 8 9 9 9 8
6 5 3 3 0 1 1 1 2 4 3 4 2 4 5 3 2 3 3 4 3 2 1 3 5 7 7 7 7 6 7 8 8 9 8 8 8 9 9 9 9 8 6 6 6 5 5 5 4 5 6 7 8 8 9 8 9 8 7 10 11 10 9 9 9 10 10 10 11 11 11 11 11 10 10 10 10 10 10 10 9 10 9 10 10 9 9 9 9 9 9 8 8 8 9 10 9
3 1 2 1 2 1 2 2 1 1 3 4 0 2 1 4 1 2 1 2 2 3 3 5 7 8 8 8 8 8 8 9 9 9 8 8 9 10 9 8 9 9 8 7 7 5 6 5 5 6 7 8 9 10 9 10 9 9 10 10 10 10 10 10 10 10 10 10 11 11 11 11 11 10 9 10 10 10 10 10 9 10 10 9 10 9 9 9 9 8 8 8 8 10 11 11 10
0 0 2 1 2 1 1 1 0 1 2 1 3 4 2 3 1 3 2 1 1 3 5 5 6 8 8 7 7 8 10 9 9 8 8 9 9 9 9 8 7 7 6 5 5 5 5 4 6 7 8 9 9 9 9 9 9 9 11 11 11 11 11 10 11 11 11 10 10 10 10 10 10 10 9 10 10 10 10 10 10 10 10 10 10 10 9 9 9 10 9 10 10 10 11 10 10
1 2 2 2 0 0 1 1 2 2 1 1 1 5 4 2 1 3 2 1 2 2 4 6 7 9 9 9 10 10 9 10 10 9 9 9 9 9 9 8 6 6 6 7 6 5 5 5 6 6 7 8 9 9 9 9 9 9 11 11 11 10 9 10 11 11 10 10 10 10 10 10 10 10 9 10 10 9 10 11 10 10 10 10 10 10 10 9 9 10 11 9 9 11 11 12 11
Wind_Direction
306 305 293 220 222 227 213 89 238 95 226 80 97 335 72 63 68 90 78 173 146 64 57 61 42 36 43 68 94 83 37 54 33 316 53 355 346 328 345 336 335 328 322 316 319 319 326 4 26 29 36 37 38 40 41 39 40 42 42 43 44 46 48 43 39 39 39 38 38 38 44 50 44 44 49 49 48 46 44 43 41 41 41 43 41 41 42 40 40 39 35 34 36 36 33 36 36
302 305 230 218 162 227 141 306 246 137 115 113 74 20 60 96 117 58 64 50 44 104 89 63 63 72 79 98 112 130 55 49 25 30 112 2 313 336 348 337 336 329 326 322 318 320 321 353 22 35 31 36 38 40 40 43 45 45 42 41 42 44 44 45 42 39 38 43 44 41 40 39 44 47 47 47 47 46 46 44 43 42 43 42 44 44 44 41 43 43 42 40 38 39 39 37 35
312 266 164 218 147 303 110 277 222 156 186 121 79 47 161 110 86 80 65 62 80 109 129 95 85 39 67 89 52 9 119 45 26 42 73 354 9 349 338 335 338 330 326 318 321 325 324 9 20 31 36 32 37 40 41 43 44 45 48 47 49 48 45 43 45 47 40 39 42 42 40 38 40 42 45 46 47 47 45 47 46 44 44 43 44 45 46 46 45 44 44 44 44 42 41 41 39
285 284 234 207 121 253 148 95 55 223 94 88 109 85 81 90 91 87 73 62 74 177 185 156 310 9 333 72 76 93 75 52 38 5 32 3 6 319 334 335 338 339 339 330 329 332 333 12 21 29 38 42 39 37 39 41 41 43 44 45 46 46 49 48 49 44 45 45 43 43 40 39 39 39 40 43 48 49 48 46 44 45 44 44 44 45 46 46 46 46 44 43 43 44 44 43 42
248 95 304 263 165 110 107 53 61 282 125 92 114 121 94 71 101 94 71 70 56 137 156 122 112 45 54 56 3 347 15 286 48 24 19 355 1 342 327 326 331 343 346 338 338 344 349 12 18 26 32 39 44 40 42 43 44 41 42 46 48 45 45 45 41 44 44 47 43 43 43 38 39 39 42 43 43 46 46 45 45 44 43 45 45 45 45 46 46 46 45 44 43 42 42 44 44
161 100 45 343 60 27 162 149 108 72 54 344 131 116 76 73 96 106 100 81 71 66 84 69 39 160 69 41 22 70 342 112 21 37 336 9 346 340 330 326 338 345 348 348 349 356 349 13 17 25 32 37 40 41 41 42 44 44 43 43 45 48 47 45 43 41 41 42 43 43 42 41 39 36 35 39 43 44 43 43 43 43 43 44 44 45 44 44 45 46 46 44 43 42 40 39 40
145 132 61 106 99 294 88 99 88 91 61 351 89 114 104 87 94 111 129 116 83 77 45 86 95 137 110 133 100 57 11 327 35 323 297 320 314 318 327 327 337 354 355 359 357 354 358 16 20 26 34 38 41 43 42 43 44 44 44 44 43 42 44 45 44 44 43 43 42 41 42 39 39 39 35 34 37 40 42 40 39 38 37 39 40 42 43 43 42 44 44 43 43 43 42 40 39
193 231 27 135 77 60 77 86 77 27 76 40 45 67 48 52 37 10 41 299 52 18 48 72 241 76 63 307 55 56 72 50 101 210 253 303 330 331 345 359 5 9 9 14 13 11 9 20 26 28 32 39 42 44 43 43 44 45 45 45 44 43 44 44 43 42 44 43 44 44 45 44 41 37 37 36 36 38 39 38 38 39 38 38 38 38 39 40 41 41 42 41 40 42 43 43 40
51 63 255 120 81 84 84 68 85 60 78 51 59 41 30 15 337 354 52 71 116 60 55 8 144 276 88 77 69 83 64 204 214 356 326 336 342 341 354 0 3 8 16 14 17 15 13 19 28 29 31 37 39 42 43 43 43 43 43 43 43 43 43 44 43 42 42 42 43 42 42 42 43 41 39 35 35 37 39 38 37 37 38 39 39 38 37 38 39 39 39 38 37 36 40 42 41
84 306 115 82 124 101 107 105 103 54 67 47 48 37 32 30 76 68 93 84 80 81 55 40 125 111 129 99 119 115 63 3 188 63 22 346 333 339 349 355 1 8 17 13 14 15 21 16 25 32 33 34 38 39 40 41 41 41 41 41 41 41 42 42 43 42 40 40 41 42 42 41 41 40 39 38 36 36 38 38 36 35 35 35 36 37 37 38 38 38 37 37 34 32 33 36 38
90 43 324 124 123 123 114 105 97 108 77 89 73 54 44 51 101 98 75 95 34 96 102 2 82 110 115 80 72 71 28 1 248 42 358 340 319 332 327 336 355 13 16 19 22 21 23 24 21 26 31 34 36 37 37 39 39 39 41 41 40 38 38 40 42 41 40 38 38 40 40 41 42 41 38 36 35 35 36 38 38 37 36 35 34 34 35 36 38 38 36 35 33 31 32 32 33
110 40 140 93 71 91 100 108 104 103 111 121 85 40 13 359 353 85 98 95 73 71 45 356 72 108 83 109 90 84 65 73 43 37 352 344 4 356 339 4 15 28 27 26 24 27 26 30 26 22 27 30 32 36 37 37 38 38 38 40 39 40 39 38 38 38 38 38 38 37 36 37 38 39 39 38 37 35 34 34 36 36 35 35 34 34 34 35 36 37 38 35 32 30 30 31 32
95 108 92 82 77 93 110 110 113 120 122 60 60 38 357 18 50 42 53 71 47 56 44 12 346 310 77 55 86 106 81 50 39 16 359 6 18 16 22 30 16 23 25 25 30 26 26 29 26 24 27 29 30 31 37 38 39 40 40 42 40 39 39 38 39 40 40 39 38 36 36 37 37 36 36 35 35 35 34 32 33 35 34 33 32 32 33 34 34 36 37 35 33 31 29 29 30
47 36 71 102 91 104 105 102 133 127 88 88 57 39 34 30 18 8 353 57 28 36 24 350 349 6 89 120 87 84 79 55 35 358 352 4 15 11 20 26 21 25 27 32 31 28 26 24 26 25 24 27 29 32 28 36 38 41 42 41 39 40 39 37 37 38 38 38 39 39 37 36 36 37 37 36 35 33 32 31 30 32 33 32 31 31 30 31 33 34 34 33 32 30 31 30 28
82 274 86 94 98 100 65 123 135 115 96 73 35 33 74 49 22 40 32 39 57 19 321 45 348 283 67 219 113 97 78 61 29 8 18 21 45 40 33 43 42 34 32 33 34 33 31 25 27 24 24 28 28 29 24 27 36 36 38 39 39 38 37 34 34 33 33 34 34 37 37 35 33 32 33 33 32 32 30 28 27 27 29 29 29 29 29 28 29 30 31 31 29 27 29 32 31
42 89 87 105 92 96 67 93 333 105 95 75 88 87 81 58 26 36 33 18 93 39 24 32 24 36 62 76 94 84 79 59 46 3 6 21 23 47 47 46 49 38 35 30 31 34 28 27 27 33 28 29 32 32 33 30 29 31 33 35 36 36 36 36 32 27 25 25 26 29 30 30 28 27 28 30 29 28 27 26 24 25 26 26 26 26 26 26 26 28 28 27 25 23 22 27 28
268 120 93 94 95 88 23 51 315 85 105 92 115 307 96 74 60 79 78 66 78 53 60 44 53 48 56 68 79 86 89 130 248 296 37 38 12 28 32 36 41 41 36 38 33 25 25 22 26 27 25 19 25 25 23 24 22 24 27 27 31 33 33 33 32 31 23 15 14 18 21 22 24 22 20 20 22 23 22 21 22 23 24 24 24 24 21 22 22 21 21 21 22 22 19 19 25
339 53 88 70 62 68 13 39 42 66 109 90 97 112 114 100 117 109 141 69 79 77 72 72 67 60 65 72 79 104 127 148 297 47 51 42 36 32 36 35 33 35 35 39 36 26 27 30 23 24 15 13 14 14 6 22 11 20 26 24 27 23 25 18 24 19 18 13 8 16 22 22 17 28 20 11 14 14 18 14 15 18 20 20 18 18 20 16 16 16 14 13 15 15 15 13 16
52 71 67 82 47 62 358 15 23 86 94 101 92 69 73 73 349 129 101 76 87 82 70 80 80 80 84 80 86 90 99 73 58 58 55 50 43 40 33 29 29 29 37 36 36 23 23 28 21 22 17 11 12 21 18 22 15 13 15 12 8 10 11 12 17 15 17 14 10 16 23 20 12 21 16 2 341 358 7 357 2 3 10 13 5 6 10 10 6 5 5 4 8 9 12 9 9
18 77 78 70 85 83 51 46 65 68 113 107 99 74 68 49 58 345 100 83 64 62 84 80 70 87 83 81 77 75 75 59 49 51 48 44 34 32 30 26 30 29 30 30 23 20 20 17 13 15 11 9 9 13 14 19 8 10 11 12 8 9 10 9 9 8 12 10 9 12 13 12 9 13 13 12 356 6 6 3 357 358 4 5 355 356 359 4 353 2 2 357 1 8 6 3 360
355 62 75 106 169 91 38 44 47 68 73 96 96 105 72 46 47 346 129 87 62 62 35 57 91 87 84 84 83 72 74 73 74 58 51 45 40 35 30 27 28 24 18 17 25 23 17 14 2 5 2 6 9 13 15 16 10 12 10 9 4 4 2 359 0 359 6 4 2 2 0 4 360 4 9 5 3 2 360 1 1 1 1 359 356 357 355 354 351 355 356 357 1 0 358 357 351
90 61 66 94 103 87 49 38 30 57 59 92 86 79 70 106 43 38 63 86 70 42 34 53 64 71 78 87 87 99 92 79 65 57 53 45 33 29 25 39 43 29 8 26 16 18 18 15 4 359 12 14 16 13 10 10 10 10 6 6 358 4 357 352 353 353 353 356 352 351 349 356 356 357 359 360 358 356 356 357 356 356 354 355 356 351 353 349 346 350 350 351 349 347 347 347 344
91 70 60 60 56 98 33 44 22 298 87 71 74 77 100 94 76 50 61 67 72 30 25 54 59 63 76 88 113 106 83 76 67 59 46 49 31 20 24 19 25 27 22 26 12 14 12 13 9 0 9 5 8 4 358 6 10 6 3 359 353 4 352 354 354 346 345 336 340 346 345 344 349 349 352 353 353 350 352 352 351 351 351 352 350 347 349 347 344 347 347 344 342 339 335 334 332
93 98 85 64 74 81 71 71 56 69 79 78 95 137 100 113 80 54 69 67 62 51 39 61 62 63 85 106 82 61 64 47 54 43 26 23 359 359 360 11 20 7 16 12 14 4 10 5 1 359 4 360 359 355 356 3 4 356 358 356 4 356 348 357 353 344 329 336 341 343 342 338 341 344 347 347 346 347 348 346 344 347 350 348 349 346 348 345 344 345 343 341 339 337 336 332 333
91 95 91 96 77 79 85 80 83 87 89 106 107 86 72 82 92 88 66 62 50 59 70 74 85 91 80 70 55 47 67 63 35 24 345 0 353 325 333 339 348 339 8 5 352 352 1 356 349 357 358 356 354 348 354 356 357 356 358 360 360 350 0 357 348 341 346 344 348 347 342 337 339 341 344 343 340 344 342 345 341 347 344 347 347 346 347 342 342 341 340 338 336 332 330 329 329
68 104 109 107 89 85 94 94 87 95 97 96 91 89 95 103 98 66 65 52 34 33 77 46 60 66 48 35 22 349 339 342 314 328 348 322 317 317 1 342 334 331 357 334 337 347 352 347 345 354 350 350 341 339 354 350 350 348 353 348 347 348 360 346 345 357 353 352 355 354 342 337 338 340 342 340 338 338 338 339 339 343 341 345 345 342 343 338 334 333 334 333 329 327 324 322 320
129 107 97 91 83 81 47 86 88 73 59 30 99 94 86 132 246 101 72 29 353 357 49 31 4 38 24 5 327 300 289 284 297 313 300 299 299 322 340 328 332 343 329 332 341 346 340 333 344 348 348 340 338 340 344 342 341 342 342 333 342 349 345 340 355 357 359 0 358 349 342 343 337 338 342 339 336 335 334 336 336 336 334 340 340 337 336 329 322 321 325 323 323 319 315 316 313
122 121 103 92 86 62 45 62 54 246 62 349 87 96 79 46 55 56 3 345 334 340 22 26 26 16 7 347 318 298 276 275 274 282 300 319 345 347 335 342 339 334 328 333 332 332 325 339 341 343 340 341 333 340 339 337 340 339 332 335 342 345 329 344 347 355 355 357 354 348 345 347 336 337 337 332 329 328 328 330 325 330 327 331 334 331 326 319 312 311 311 310 306 308 309 309 312
137 240 97 92 78 56 25 17 360 330 80 354 302 141 59 35 45 13 358 334 321 338 17 16 8 350 335 318 305 290 299 297 288 281 300 311 315 314 311 323 323 316 321 318 324 315 327 337 333 332 333 334 336 337 340 334 338 336 337 334 342 334 336 342 346 346 350 348 346 347 339 338 337 337 336 330 323 320 321 319 320 321 322 327 324 320 313 312 313 314 314 312 307 309 305 305 305
183 45 92 137 101 59 20 5 3 54 76 329 179 208 60 45 36 15 9 340 322 301 27 9 351 333 322 309 306 305 302 291 288 298 308 305 304 303 298 308 311 305 314 318 321 324 336 320 322 318 329 333 337 339 341 344 344 336 335 337 340 340 342 338 339 340 339 338 340 337 338 339 335 335 333 328 324 321 319 314 318 317 319 324 314 313 315 316 310 309 311 310 311 306 306 305 307
116 344 318 30 308 68 40 22 353 169 135 335 168 251 112 69 33 23 7 334 332 31 14 4 353 342 339 338 324 320 314 308 303 307 306 301 297 294 291 296 305 311 307 317 325 323 321 322 323 321 332 333 340 350 346 342 333 335 337 346 341 340 332 330 331 333 332 331 330 334 339 340 335 335 333 327 323 321 319 317 316 317 322 317 311 314 312 310 307 308 312 308 304 303 301 303 301
50 236 62 26 40 98 61 25 24 12 332 346 284 127 110 68 29 15 351 318 325 14 10 14 4 357 352 352 347 336 325 315 307 290 289 308 302 301 299 300 306 310 317 322 319 317 319 333 335 329 340 350 353 353 343 338 340 344 341 337 335 332 327 328 331 329 327 325 329 329 338 336 331 332 332 329 320 319 318 315 314 316 317 313 312 310 309 308 311 308 306 305 304 303 303 300 300
35 24 90 48 19 68 192 56 18 9 292 2 337 118 143 101 28 25 338 280 321 357 25 21 15 16 15 11 3 347 344 358 358 350 341 333 322 321 316 315 315 316 318 314 314 323 329 347 343 350 356 354 353 351 349 345 344 341 337 334 328 325 328 330 330 329 323 326 329 330 338 331 325 327 326 323 315 312 310 307 306 307 309 308 305 305 303 306 306 305 302 304 303 302 302 300 299
58 23 75 19 26 296 84 170 34 357 4 48 31 94 51 28 14 30 25 324 305 45 40 40 42 36 31 27 28 21 19 14 11 357 351 338 329 326 324 322 314 310 295 300 319 320 328 336 339 348 345 358 350 346 345 339 339 332 333 336 332 332 333 331 331 327 326 329 327 334 331 326 322 323 322 321 314 312 308 307 307 307 309 307 302 303 302 302 302 301 304 305 303 301 299 302 300
34 67 117 109 87 45 49 14 5 347 41 72 80 80 82 66 81 67 15 1 36 68 58 51 48 43 34 34 35 34 33 33 22 8 355 350 341 344 338 333 322 315 327 335 328 329 329 343 338 345 357 355 344 341 339 331 332 331 332 332 329 330 333 329 328 325 331 328 330 333 328 327 324 325 327 323 321 317 314 312 309 312 309 305 305 303 304 303 304 306 304 302 299 297 298 295 295
63 2 64 85 103 57 41 11 11 351 36 53 45 85 90 87 82 74 61 33 78 82 81 64 51 40 34 34 36 34 32 37 23 13 8 14 9 352 347 343 327 330 348 349 340 346 354 352 341 344 1 354 336 335 336 335 334 330 331 327 326 331 328 330 327 330 332 328 331 327 327 322 323 324 320 320 316 315 314 310 311 310 308 307 305 304 304 308 309 307 303 303 303 299 292 293 298
102 93 95 80 102 97 111 47 358 330 345 52 58 85 89 80 52 42 45 142 93 79 68 57 42 34 34 33 34 30 31 24 353 3 22 17 20 14 349 336 342 348 12 359 354 359 360 353 336 347 344 349 339 338 340 337 339 334 332 332 329 329 328 325 323 328 327 323 321 319 318 316 318 317 316 317 316 313 310 311 309 310 309 307 305 304 307 305 303 302 302 300 300 301 300 301 303
64 111 122 98 39 100 58 10 354 60 285 92 39 91 76 70 57 49 56 122 69 53 55 51 41 39 40 27 24 22 11 2 6 22 20 28 19 14 0 1 4 356 353 348 356 349 348 346 348 341 341 346 345 342 332 331 343 338 324 323 322 317 323 322 322 320 319 315 316 318 317 319 320 319 317 317 316 315 313 314 314 310 311 308 306 304 302 302 302 301 304 302 300 303 299 303 306
177 267 129 129 81 90 110 55 16 19 271 94 256 130 86 69 48 60 49 42 63 14 359 3 4 30 29 21 10 8 1 356 353 0 1 1 0 355 352 346 348 331 318 324 348 342 348 346 348 342 342 338 338 340 335 338 329 324 310 313 309 312 305 310 310 311 311 316 319 319 318 318 320 318 319 319 316 316 315 316 314 312 310 311 308 306 305 305 304 304 306 306 306 299 295 296 300
59 170 216 70 78 267 130 61 23 34 4 128 189 180 119 124 137 87 45 7 5 318 291 299 306 349 0 357 355 337 334 339 339 340 340 344 343 338 339 333 335 319 321 337 349 343 339 335 340 339 332 330 327 342 330 322 313 305 295 294 298 299 313 314 311 313 319 320 318 318 317 320 318 316 319 317 316 315 317 313 311 310 310 310 307 306 305 304 304 306 305 304 304 302 302 301 301
52 33 50 111 141 40 342 84 13 74 74 67 187 218 185 180 180 162 133 159 236 227 237 227 211 251 288 271 266 294 321 327 325 327 333 335 334 331 326 319 312 316 326 340 340 333 321 319 322 322 317 318 316 329 329 321 318 320 327 323 322 322 317 318 319 318 322 317 313 318 319 318 316 315 315 314 314 314 314 311 310 309 308 307 306 302 302 303 304 301 305 304 306 305 302 300 298
108 59 16 8 36 356 11 309 235 186 133 68 306 258 170 157 191 212 147 199 188 160 252 182 280 0 323 337 337 322 293 276 293 317 319 317 313 316 318 321 321 323 326 334 323 309 308 309 314 317 311 307 320 328 338 327 328 328 336 334 330 327 322 325 325 324 321 320 318 315 313 316 315 314 313 314 315 315 313 311 309 309 308 308 305 304 301 300 300 304 307 309 302 300 297 298 295
310 56 347 34 338 306 253 196 233 249 350 71 282 330 346 148 209 198 185 222 231 195 234 229 237 252 287 298 305 319 324 327 325 321 320 318 320 318 317 321 322 319 326 326 314 307 305 304 310 308 310 317 331 333 344 340 334 337 337 330 325 323 321 318 318 314 313 312 311 311 312 313 313 311 310 312 313 312 310 309 309 309 308 305 306 304 302 301 301 309 310 303 301 300 296 290 294
61 68 312 285 236 233 205 198 251 52 111 159 255 1 299 271 148 153 158 253 237 239 229 230 234 253 286 297 299 305 317 319 320 324 322 320 315 312 312 316 318 326 322 316 314 313 317 322 320 317 318 319 334 341 345 350 338 338 330 328 326 324 322 315 317 314 310 308 310 311 313 311 311 308 309 309 309 309 308 308 311 308 305 306 306 303 302 304 310 305 302 299 297 292 291 290 295
49 40 288 92 205 144 151 201 162 75 278 207 113 4 252 252 104 140 193 250 241 243 233 226 231 245 266 303 321 314 309 310 308 312 316 315 314 314 316 315 317 316 320 317 315 316 318 321 319 318 318 322 342 351 345 345 343 335 329 328 326 321 317 314 313 310 311 313 310 313 311 310 308 309 307 307 307 308 309 310 310 306 307 308 305 302 305 310 303 300 301 300 295 294 292 291 291
96 84 103 89 104 106 283 178 160 147 274 290 43 3 322 348 125 173 206 256 266 262 233 222 225 238 261 288 310 319 325 325 315 306 301 302 305 304 304 298 302 316 310 308 305 306 315 320 321 323 328 333 342 341 342 338 339 336 331 330 325 321 321 317 315 314 314 317 313 313 313 311 313 310 310 309 307 310 312 312 308 309 309 307 305 307 306 300 302 301 299 297 298 297 294 290 289
76 187 205 144 155 113 112 40 190 199 234 95 67 33 12 302 121 167 183 319 351 357 205 217 229 245 251 258 275 293 307 317 313 313 310 307 306 297 293 302 315 324 320 308 309 312 315 322 325 323 330 328 333 336 335 334 336 336 332 330 326 322 322 318 317 316 317 318 316 315 315 314 311 309 312 310 311 314 315 311 310 311 309 306 306 305 304 306 305 303 302 299 294 292 292 292 289
179 168 235 167 169 170 190 132 254 275 21 108 63 14 352 286 78 152 229 69 267 277 284 233 232 243 258 274 287 291 296 301 303 307 314 318 316 317 321 321 328 326 326 332 329 328 324 325 325 321 323 333 330 332 333 337 337 336 334 330 327 325 322 320 318 316 319 317 315 315 315 313 311 311 311 313 315 318 316 314 313 311 308 308 305 307 306 305 305 304 299 296 295 294 291 290 287
201 211 203 250 61 225 189 149 279 8 340 104 88 355 264 236 355 49 80 256 234 236 276 277 266 266 268 275 282 294 300 301 308 314 315 316 316 316 318 320 323 325 326 326 327 327 324 324 325 320 323 334 333 334 336 338 339 338 337 331 328 325 321 320 316 315 317 316 317 315 317 313 314 313 315 315 314 319 317 315 316 313 310 309 307 306 306 306 303 300 297 295 292 294 293 291 289
358 355 334 318 3 29 355 6 205 269 129 89 167 28 252 301 123 103 55 7 281 256 249 271 270 271 279 285 296 303 304 307 309 309 305 305 310 312 312 312 314 314 317 319 320 321 320 315 321 320 321 330 335 336 338 338 339 338 335 332 328 325 322 319 318 315 316 315 314 314 313 313 313 312 314 313 316 318 316 313 311 309 306 306 307 306 305 305 303 299 298 298 297 292 290 289 287
30 270 328 34 52 18 343 318 333 346 305 332 116 267 32 329 89 114 347 322 303 275 275 273 270 270 276 286 288 282 278 319 320 312 309 309 311 316 311 309 307 308 311 313 316 317 319 316 323 323 320 331 337 340 340 340 337 334 332 330 326 324 321 319 316 316 315 315 314 312 311 312 310 312 312 312 316 316 313 312 311 308 308 308 307 306 307 307 305 302 299 295 293 293 293 290 287
222 319 256 330 50 314 314 21 303 334 325 301 148 300 344 301 89 304 281 277 259 254 258 256 267 255 260 279 273 276 302 332 325 315 316 318 321 320 315 311 310 310 311 310 313 320 319 319 318 316 318 328 336 340 340 335 329 327 326 324 323 320 317 315 313 315 314 313 312 311 311 312 313 310 310 313 314 313 314 312 310 309 310 308 309 310 310 307 307 303 297 295 295 296 292 289 288
15 253 41 49 346 264 110 126 99 197 211 226 358 272 191 211 144 260 274 248 259 240 260 258 268 273 264 269 274 279 303 327 318 314 313 313 315 315 313 308 307 311 312 313 315 316 314 313 313 317 325 331 338 340 335 328 325 323 324 322 322 320 318 316 315 313 313 313 311 312 312 313 311 311 313 313 311 315 313 314 312 312 312 312 312 311 309 306 306 301 296 298 296 296 294 291 289
275 35 77 94 72 337 313 330 182 214 282 61 101 319 323 328 62 168 208 238 235 252 255 279 280 275 277 278 281 290 301 314 307 303 305 305 303 303 307 305 307 307 308 309 313 321 313 307 308 315 325 332 337 334 330 327 325 323 321 321 320 319 317 316 315 314 315 313 314 314 315 314 315 314 312 311 314 314 315 315 315 313 313 314 313 311 311 309 307 301 300 296 294 297 294 290 288
30 73 113 272 31 272 109 235 5 341 322 312 289 289 241 266 358 161 203 233 248 214 232 281 319 325 321 311 305 295 310 314 315 315 313 317 318 319 316 314 316 317 316 308 308 312 311 309 317 320 328 336 335 329 325 322 325 323 320 320 320 320 319 317 316 315 315 314 317 317 316 315 313 315 314 316 316 317 317 317 315 316 315 315 314 312 310 307 306 301 301 296 295 296 294 292 290
60 234 126 20 278 48 323 52 263 232 291 326 22 359 46 195 348 235 238 265 257 248 281 327 326 319 315 311 308 309 310 309 306 306 307 309 314 314 315 316 318 321 320 320 320 322 320 323 321 334 338 337 332 330 328 325 328 324 320 319 320 321 321 320 320 321 319 319 319 319 317 317 317 315 315 317 315 315 316 315 315 313 311 311 311 309 308 304 303 298 298 297 296 295 290 288 288
29 199 59 126 58 281 142 78 349 282 285 267 316 325 23 82 197 223 251 320 289 286 294 304 304 308 307 298 296 300 305 302 300 301 305 309 310 311 313 316 316 312 306 301 305 318 316 313 328 342 337 330 329 328 327 326 326 323 322 321 322 323 322 322 322 323 321 322 322 319 320 319 315 314 318 317 315 314 314 314 311 309 309 310 309 309 308 304 300 299 297 295 293 290 287 288 289
335 334 48 22 251 159 280 220 100 2 266 226 249 288 299 7 100 251 309 54 314 281 269 282 289 300 303 302 301 304 302 301 301 303 305 305 306 308 312 315 313 311 311 318 325 318 321 333 342 338 333 331 330 328 329 326 323 319 320 321 322 322 322 323 324 325 324 325 323 322 323 321 315 316 317 314 314 314 312 311 309 307 307 308 306 307 307 304 300 300 297 294 292 291 290 289 290